Weather History for PACD - January, 2012

Change the Weather History Date:

Friday, January 20, 2012

  Actual Average Record
Temperature  
Mean Temperature 12 °F 28 °F  
Max Temperature 18 °F 33 °F 46 °F (2003)
Min Temperature 6 °F 23 °F -2 °F (1947)
Degree Days  
Heating Degree Days 53 37  
Month to date heating degree days 913 732  
Since 1 July heating degree days 5146 4809  
Cooling Degree Days 0    
Month to date cooling degree days 0  
Year to date cooling degree days 0  
Moisture  
Dew Point 6 °F    
Average Humidity 0    
Maximum Humidity 0    
Minimum Humidity 0    
Precipitation  
Precipitation 0.00 in 0.10 in 0.48 in (2004)
Month to date precipitation 3.11 2.06  
Year to date precipitation 3.11 2.06  
Snow  
Snow 0.00 in 0.50 in 4.00 in (1986)
Month to date snowfall 18.2 9.1  
Since 1 July snowfall 34.3  
Snow Depth 12.00 in    
Sea Level Pressure  
Sea Level Pressure 29.47 in    
Wind  
Wind Speed 0 mph (NNW)    
Max Wind Speed 16 mph    
Max Gust Speed 18 mph    
Visibility 10 miles    
Events      
T = Trace of Precipitation, MM = Missing Value Source: NWS Daily Summary

Daily Weather History Graph

Daily Weather History Graph

Search for Another Location

Airport or City:

Trip Planner

Search our weather history database for the weather conditions in past years. The results will help you decide how hot, cold, wet, or windy it might be!

Date:

Astronomy

Jan. 20, 2012 Rise Set
Actual Time 10:01 AM AKST 6:02 PM AKST
Civil Twilight 9:19 AM AKST 6:44 PM AKST
Nautical Twilight 8:33 AM AKST 7:30 PM AKST
Astronomical Twilight 7:50 AM AKST 8:13 PM AKST
Moon 8:04 AM AKST (1/20) 3:34 PM AKST (1/20)
Length of Visible Light 9h 25m
Length of Day
8h 00m
Waning Crescent, 7% of the Moon is Illuminated
Jan 20
Waning Crescent
Jan 22
New
Jan 30
First Quarter
Feb 7
Full
Feb 14
Last Quarter

Hourly Weather History & Observations

Time (AKST) Temp. Windchill Dew Point Humidity Pressure Visibility Wind Dir Wind Speed Gust Speed Precip Events Conditions
12:53 AM 17.1 °F 11.7 °F 12.0 °F 81% 29.53 in 10.0 mi NNW 3.5 mph - N/A   Overcast
1:53 AM 18.0 °F 7.7 °F 14.0 °F 84% 29.52 in 10.0 mi North 8.1 mph - N/A   Overcast
2:53 AM 16.0 °F 3.6 °F 10.9 °F 81% 29.50 in 10.0 mi North 10.4 mph - N/A   Overcast
3:53 AM 16.0 °F 2.9 °F 10.0 °F 77% 29.49 in 10.0 mi North 11.5 mph - N/A   Overcast
4:53 AM 16.0 °F 2.9 °F 10.0 °F 77% 29.48 in 10.0 mi NNE 11.5 mph - N/A   Overcast
5:53 AM 15.1 °F 6.4 °F 9.0 °F 77% 29.47 in 10.0 mi NNW 5.8 mph - N/A   Mostly Cloudy
6:44 AM 14.0 °F - 8.6 °F 79% 29.46 in 10.0 mi Calm Calm - N/A   Mostly Cloudy
6:53 AM 14.0 °F - 10.0 °F 84% 29.47 in 10.0 mi Calm Calm - N/A   Overcast
7:53 AM 14.0 °F 1.2 °F 8.1 °F 77% 29.47 in 10.0 mi NNE 10.4 mph - N/A   Overcast
8:28 AM 12.2 °F 4.3 °F 6.8 °F 79% 29.46 in 10.0 mi NNW 4.6 mph - N/A   Scattered Clouds
8:53 AM 10.9 °F -3.4 °F 6.1 °F 81% 29.46 in 10.0 mi North 11.5 mph - N/A   Overcast
9:53 AM 10.0 °F -5.9 °F 5.0 °F 80% 29.46 in 10.0 mi North 13.8 mph - N/A   Mostly Cloudy
10:53 AM 8.1 °F -4.3 °F 3.9 °F 83% 29.46 in 10.0 mi North 8.1 mph - N/A   Partly Cloudy
11:53 AM 6.1 °F - 5.0 °F 95% 29.47 in 10.0 mi Calm Calm - N/A   Mostly Cloudy
12:53 PM 10.0 °F 3.6 °F 5.0 °F 80% 29.47 in 10.0 mi West 3.5 mph - N/A   Clear
1:53 PM 10.9 °F 2.9 °F 6.1 °F 81% 29.47 in 10.0 mi West 4.6 mph - N/A   Clear
2:53 PM 12.0 °F 5.9 °F 6.1 °F 77% 29.46 in 10.0 mi NNW 3.5 mph - N/A   Clear
3:53 PM 12.0 °F 5.9 °F 6.1 °F 77% 29.45 in 10.0 mi NW 3.5 mph - N/A   Clear
4:53 PM 10.9 °F 2.9 °F 5.0 °F 77% 29.45 in 10.0 mi NW 4.6 mph - N/A   Clear
5:53 PM 7.0 °F -1.7 °F 1.9 °F 80% 29.45 in - West 4.6 mph - N/A   Clear
6:53 PM 6.1 °F -4.3 °F 1.9 °F 83% 29.45 in 10.0 mi West 5.8 mph - N/A   Clear
7:53 PM 6.1 °F - 1.9 °F 83% 29.45 in 10.0 mi Calm Calm - N/A   Clear
8:53 PM 8.1 °F -8.4 °F 1.9 °F 76% 29.43 in 10.0 mi NNE 13.8 mph - N/A   Clear
9:53 PM 10.0 °F -5.2 °F 3.9 °F 76% 29.43 in 10.0 mi North 12.7 mph - N/A   Clear
10:53 PM 7.0 °F -3.3 °F 1.9 °F 80% 29.44 in 10.0 mi WNW 5.8 mph - N/A   Clear
11:53 PM 8.1 °F - 3.9 °F 83% 29.44 in 10.0 mi Calm Calm - N/A   Clear